User: anonymous   Login
Location: La Pernelle
(49.6188°N, 1.2999°W)
Time: 07:34:29
(UTC+00:00)
Language:

Cosmos 1953 - Orbit

View from above orbital plane
View from above orbital plane
View from above satellite
View from above satellite

Ground track
Ground track

The orbit data is extracted from the following two-line orbital elements,

1 19210U 88050A   21267.56775688  .00001029  00000-0  67830-4 0  9994
2 19210  82.5175 319.1990 0012664 337.7579  22.3097 15.06389689791527
Epoch (UTC): 24 September 2021 13:37:34
Eccentricity: 0.0012664
inclination: 82.5175°
perigee height: 538 km
apogee height: 556 km
right ascension of ascending node: 319.1990°
argument of perigee: 337.7579°
revolutions per day: 15.06389689
mean anomaly at epoch: 22.3097°
orbit number at epoch: 79152

The dashed part of the orbit path shows where the satellite is in the earth's shadow,  

DLR